Weather History for Ord, NE

Change the Weather History Date:

Friday, November 4, 2011

  Actual Average Record
Temperature  
Mean Temperature 37 °F 42 °F  
Max Temperature 53 °F 54 °F 75 °F (2007)
Min Temperature 21 °F 30 °F 21 °F (2002)
Degree Days  
Heating Degree Days 28 23  
Month to date heating degree days 109 90  
Since 1 July heating degree days 738 710  
Cooling Degree Days 0 0  
Month to date cooling degree days 0 0  
Year to date cooling degree days 922 845  
Moisture  
Dew Point 23 °F    
Average Humidity 61    
Maximum Humidity 88    
Minimum Humidity 34    
Precipitation  
Precipitation 0.00 in 0.05 in 0.64 in (1948)
Month to date precipitation 0.02 0.19  
Year to date precipitation 22.90 23.47  
Sea Level Pressure  
Sea Level Pressure 30.06 in    
Wind  
Wind Speed 13 mph (SSE)    
Max Wind Speed 26 mph    
Max Gust Speed 35 mph    
Visibility 10 miles    
Events      
T = Trace of Precipitation, MM = Missing Value Source: NWS Daily Summary

Daily Weather History Graph

Daily Weather History Graph

Search for Another Location

Airport:

Trip Planner

Search our weather history database for the weather conditions in past years. The results will help you decide how hot, cold, wet, or windy it might be!

Date:

Astronomy

Nov. 04, 2011 Rise Set
Actual Time 8:11 AM CDT 6:27 PM CDT
Civil Twilight 7:42 AM CDT 6:56 PM CDT
Nautical Twilight 7:09 AM CDT 7:28 PM CDT
Astronomical Twilight 6:36 AM CDT 8:01 PM CDT
Moon 3:23 PM CDT (11/4) 2:20 AM CDT (11/4)
Length of Visible Light 11h 14m
Length of Day
10h 15m
Waxing Gibbous, 69% of the Moon is Illuminated
Nov 4
Waxing Gibbous
Nov 10
Full
Nov 18
Last Quarter
Nov 25
New
Dec 2
First Quarter

Hourly Weather History & Observations

Time (CDT) Temp. Windchill Dew Point Humidity Pressure Visibility Wind Dir Wind Speed Gust Speed Precip Events Conditions
12:53 AM 32.0 °F 24.8 °F 21.0 °F 64% 30.21 in 10.0 mi South 8.1 mph - N/A   Clear
1:53 AM 30.0 °F 24.1 °F 19.9 °F 66% 30.20 in 10.0 mi South 5.8 mph - N/A   Clear
2:53 AM 28.0 °F 22.8 °F 19.9 °F 72% 30.19 in 10.0 mi SE 4.6 mph - N/A   Clear
3:53 AM 28.0 °F 21.7 °F 19.9 °F 72% 30.17 in 10.0 mi SSE 5.8 mph - N/A   Clear
4:53 AM 27.0 °F 20.5 °F 19.0 °F 72% 30.16 in 10.0 mi SE 5.8 mph - N/A   Clear
5:53 AM 26.1 °F 17.6 °F 19.0 °F 75% 30.15 in 10.0 mi ESE 8.1 mph - N/A   Clear
6:53 AM 23.0 °F 14.7 °F 19.0 °F 85% 30.17 in 10.0 mi ESE 6.9 mph - N/A   Clear
7:53 AM 23.0 °F 17.0 °F 18.0 °F 81% 30.17 in 10.0 mi SSE 4.6 mph - N/A   Clear
8:53 AM 25.0 °F 16.3 °F 19.9 °F 81% 30.17 in 10.0 mi SSE 8.1 mph - N/A   Clear
9:53 AM 34.0 °F 25.0 °F 23.0 °F 64% 30.15 in 10.0 mi SSE 12.7 mph - N/A   Clear
10:53 AM 41.0 °F 32.2 °F 23.0 °F 49% 30.13 in 10.0 mi South 18.4 mph 26.5 mph N/A   Clear
11:53 AM 45.0 °F 37.1 °F 21.9 °F 40% 30.10 in 10.0 mi South 19.6 mph 27.6 mph N/A   Clear
12:53 PM 48.0 °F - 21.9 °F 36% 30.06 in 10.0 mi SSE 20.7 mph 28.8 mph N/A   Clear
1:53 PM 51.1 °F - 24.1 °F 35% 30.01 in 10.0 mi South 19.6 mph 28.8 mph N/A   Clear
2:53 PM 51.1 °F - 25.0 °F 36% 29.96 in 10.0 mi SSE 21.9 mph 28.8 mph N/A   Clear
3:53 PM 53.1 °F - 26.1 °F 35% 29.95 in 10.0 mi South 19.6 mph 32.2 mph N/A   Clear
4:53 PM 53.1 °F - 26.1 °F 35% 29.94 in 10.0 mi South 20.7 mph 33.4 mph N/A   Clear
5:53 PM 51.1 °F - 27.0 °F 39% 29.93 in 10.0 mi South 18.4 mph - N/A   Clear
6:53 PM 48.0 °F - 27.0 °F 44% 29.94 in 10.0 mi SSE 13.8 mph - N/A   Clear
7:53 PM 45.0 °F 39.7 °F 27.0 °F 49% 29.94 in 10.0 mi SSE 10.4 mph - N/A   Clear
8:53 PM 42.1 °F 36.6 °F 27.0 °F 55% 29.94 in 10.0 mi SSE 9.2 mph 18.4 mph N/A   Clear
9:53 PM 39.9 °F 33.4 °F 27.0 °F 60% 29.92 in 10.0 mi SSE 10.4 mph - N/A   Clear
10:53 PM 42.1 °F 36.1 °F 25.0 °F 51% 29.91 in 10.0 mi SSE 10.4 mph 23.0 mph N/A   Clear
11:53 PM 42.1 °F 35.7 °F 25.0 °F 51% 29.87 in 10.0 mi SSE 11.5 mph 17.3 mph N/A   Clear